Volver al catálogo

STARLINK-11358

ActivoComunicacionesVLEO
NORAD 62558·PAYLOAD·🇺🇸 United States

Lanzado Jan 10, 2025 desde Cape Canaveral Space Force Station

Loading…

Próximos Pases (próximas 24 horas)

TLE

ActualizadoSource: CelesTrak SupGP

Época: Sep 15, 2026, 02:49 UTC

1 62558C 25006E   26258.11784722 -.00008010  00000+0 -62175-4 0  2587
2 62558  43.0008  78.0184 0001703 272.3172 146.7272 15.70856075    10

Sigue STARLINK-11358 en tiempo real con AllMySat

Download on the App Store